Regional Weather Roundup
Issued by NWS

Home | Current Version | Previous Version | Text Only | Print | Product List | Glossary Off
Versions: 1 2 3 4 5 6 7 8 9 10 11 12 13 14 15 16 17 18 19 20 21 22 23 24 25 26 27 28 29 30 31 32 33 34 35 36 37 38 39 40 41 42 43 44 45 46 47 48 49 50

000
ASUS43 KDTX 280210
RWRMI
MICHIGAN HOURLY REGIONAL WEATHER ROUNDUP
NATIONAL WEATHER SERVICE DETROIT/PONTIAC MI
ISSUED BY NATIONAL WEATHER SERVICE GRAND RAPIDS MI
1000 PM EDT THU JUL 27 2017

NOTE: "FAIR" INDICATES FEW OR NO CLOUDS BELOW 12,000 FEET WITH NO
SIGNIFICANT WEATHER AND/OR OBSTRUCTION TO VISIBILITY.

MIZ047>049-052>055-059>063-066>070-074>076-081>083-280300-
SOUTHEAST LOWER MICHIGAN

CITY           SKY/WX    TMP DP  RH WIND       PRES   REMARKS
ADRIAN         CLOUDY    76  67  73 NE9       29.92R
ALMA           CLOUDY    68  61  77 NE5       29.97R
ANN ARBOR      MOCLDY    73  59  61 NE8       29.93R
BAD AXE        CLEAR     63  59  86 N7        29.97F
DETROIT CITY   CLEAR     72  59  63 NE7       29.93R
DETROIT        PTCLDY    74  60  61 NE8       29.93R
FLINT          CLEAR     71  60  68 NE9       29.95S
GROSSE ILE     PTCLDY    72  62  70 E6        29.92R
HILLSDALE      CLOUDY    72  64  78 NE7       29.93S
HOWELL         CLEAR     70  63  78 NE3       29.95S

CITY           SKY/WX    TMP DP  RH WIND       PRES   REMARKS
JACKSON        CLOUDY    74  61  63 NE8       29.94R
LANSING        PTCLDY    70  59  68 NE5       29.95S
MASON          CLOUDY    69  63  81 CALM      29.95R
MONROE         CLOUDY    74  66  76 NE9       29.91R
MT. CLEMENS    PTCLDY    68  61  77 NE8       29.93R
PONTIAC        PTCLDY    70  62  76 NE6       29.94S
PORT HOPE        N/A     68  62  81 N8        29.96F
PORT HURON     PTCLDY    66  63  88 N5        29.95S
TRI CITIES     PTCLDY    67  61  81 NE8       29.98R
YPSILANTI      CLEAR     73  59  61 NE7       29.94R
$$
MIZ043>046-050>051-056>058-064>065-071>073-077>080-280300-
SOUTHWEST LOWER MICHIGAN

CITY           SKY/WX    TMP DP  RH WIND       PRES   REMARKS
BATTLE CREEK   CLEAR     74  64  71 NE7       29.94R
BENTON HARBOR  CLEAR     71  65  81 VRB3      29.91S
BIG RAPIDS     CLOUDY    71  59  66 N6        29.97R
COLDWATER      CLOUDY    75  68  77 NE8       29.92R
HOLLAND        CLEAR     73  64  73 E3        29.93S
GRAND RAPIDS   MOCLDY    72  62  71 E6        29.93S
KALAMAZOO      PTCLDY    76  63  64 NE5       29.93R
MARSHALL       MOCLDY    73  64  73 NE5       29.93R
MOUNT PLEASANT CLOUDY    70  59  68 NE8       29.98R
MUSKEGON       MOCLDY    76  53  44 N10       29.94S
STURGIS        MOCLDY    76  68  75 NE12      29.91R
$$
MIZ016>042-280300-
NORTHERN LOWER MICHIGAN

CITY           SKY/WX    TMP DP  RH WIND       PRES   REMARKS
ALPENA         CLEAR     67  60  78 CALM      29.99S
BEAVER ISLAND  PTCLDY    64  55  72 N5        30.02S
BELLAIRE       CLEAR     64  54  70 N3        30.00S
CADILLAC       PTCLDY    68  55  64 N6        30.00S
CHARLEVOIX     CLEAR     67  58  72 N8        30.04R
GAYLORD        CLEAR     68  53  58 VRB3      30.02R
HOUGHTON LAKE  PTCLDY    67  55  65 NE6       30.01R
MANISTEE       CLOUDY    66  61  84 N5        29.98S
OSCODA         CLEAR     66  58  76 CALM      29.98R
PELLSTON       CLOUDY    61  57  87 CALM      30.01R
TRAVERSE CITY  MOCLDY    70  55  59 N10       29.99S
LUDINGTON      MOCLDY    66  60  80 N6        29.96F
$$
MIZ007>008-015-280300-
EASTERN UPPER MICHIGAN

CITY           SKY/WX    TMP DP  RH WIND       PRES   REMARKS
KINROSS        PTCLDY    61  54  77 N10       30.01S
MACKINAC ISLAN MOCLDY    65  56  73 N7        30.00S
NEWBERRY       CLOUDY    58  55  90 NW3       30.03S
S. S. MARIE    CLOUDY    62  55  77 NW3       30.00S
$$
MIZ004>006-011>014-085-280300-
CENTRAL UPPER MICHIGAN

CITY           SKY/WX    TMP DP  RH WIND       PRES   REMARKS
MANISTIQUE     CLOUDY    59  54  82 N6        30.02S
ESCANABA       PTCLDY    64  52  64 N6        30.03S
MENOMINEE      PTCLDY    67  57  70 NE8       30.03S
SAWYER-GWINN   CLEAR     63  54  72 NE10      30.05F
$$
MIZ001>003-009>011-084-280300-
WESTERN UPPER MICHIGAN

CITY           SKY/WX    TMP DP  RH WIND       PRES   REMARKS
HOUGHTON       MOCLDY    61  57  87 CALM      30.06S
COPPER HARBOR    N/A     62  54  74 CALM      30.05S
IRONWOOD       PTCLDY    64  61  90 CALM      30.08S
$$

ABBREVIATIONS USED IN REMARKS
   TC - TEMPERATURE IN CELSIUS
  WCI - WIND CHILL INDEX
   HX - HEAT INDEX
  VSB - VISIBILITY





USA.gov is the U.S. government's official web portal to all federal, state and local government web resources and services.